Location: Champaign/Urbana Astronomical Society Observatory
(40.0333°N, 88.2833°W)
Time: 07:54:42
(UTC-05:00)

Hubble Space Telescope - Visible Passes

Search period start: 21 April 2019 00:00
Search period end: 01 May 2019 00:00
Orbit: 537 x 540 km, 28.5° (Epoch: 20 April)

Date Brightness Start Highest point End Pass type
(mag) Time Alt. Az. Time Alt. Az. Time Alt. Az.
26 Apr 3.3 04:09:46 10° SSE 04:09:46 10° SSE 04:09:57 10° SSE visible
27 Apr 3.2 03:59:43 11° SSE 03:59:43 11° SSE 04:00:12 10° SE visible
28 Apr 3.3 03:49:42 11° SE 03:49:42 11° SE 03:50:00 10° SE visible
28 Apr 2.7 05:25:51 10° SW 05:28:27 16° S 05:31:04 10° SE visible
29 Apr 2.7 05:15:18 10° SW 05:17:50 16° S 05:20:22 10° SSE visible
30 Apr 2.7 05:05:05 11° SW 05:07:13 15° S 05:09:37 10° SSE visible
